Track AEROCUBE 5A now! 10-day predictions AEROCUBE 5A is classified as:
1 39465U 13072D 23078.53850447 .00350787 00000-0 49098-2 0 9998 2 39465 120.4676 285.5057 0058489 215.2491 144.4721 15.53246013191245